Regional Weather Roundup
Issued by NWS Albany, NY

Home | Current Version | Previous Version | Text Only | Print | Product List | Glossary On
Versions: 1 2 3 4 5 6 7 8 9 10 11 12 13 14 15 16 17 18 19 20 21 22 23 24 25 26 27 28 29 30 31 32 33 34 35 36 37 38 39 40 41 42 43 44 45 46 47 48 49 50
000
ASUS41 KALY 101110
RWRALY

NEW YORK STATE HOURLY WEATHER ROUNDUP
NATIONAL WEATHER SERVICE ALBANY NY
600 AM EST WED FEB 10 2016

NOTE: "FAIR" INDICATES FEW OR NO CLOUDS BELOW 12,000 FEET WITH NO
SIGNIFICANT WEATHER AND/OR NO OBSTRUCTIONS TO VISIBILITY.

NYZ032-033-038>043-046>054-057>066-NYZ062>081-101200-
EAST


CITY           SKY/WX    TMP DP  RH WIND       PRES   REMARKS
ALBANY         FLURRIES  29  25  85 S5        29.55S WCI  24
GLENS FALLS    CLOUDY    26  22  84 S3        29.54S FOG
POUGHKEEPSIE   CLOUDY    31  27  85 CALM      29.57R
NEWBURGH       CLOUDY    30  28  93 CALM      29.56
MONTGOMERY     CLOUDY    31  28  89 SW9       29.55S FOG     WCI  23
WHITE PLAINS   FOG       30  27  88 CALM      29.57R VSB 1
ISLIP          LGT SNOW  30  26  85 CALM      29.58S FOG
NEW YORK CITY  CLOUDY    35  28  75 SW8       29.59S WCI  29
CENTRAL PARK   CLOUDY    33  27  78 CALM      29.61R
$$

NYZ005>009-017-018-044>046-055-056-101200-
CENTRAL


CITY           SKY/WX    TMP DP  RH WIND       PRES   REMARKS
FULTON         CLOUDY    34  23  64 SW9       29.49S WCI  27
SYRACUSE       MOCLDY    30  23  75 S10       29.50F WCI  21
ROME           LGT SNOW  26  25  96 SE5       29.54S FOG     WCI  20
ELMIRA         CLOUDY    26  21  81 SW7       29.54R WCI  18
BINGHAMTON     PTCLDY    26  19  74 W9        29.50R WCI  17
MONTICELLO     CLOUDY    27  27 100 W5        29.52S WCI  21
$$

NYZ026>034-041>043-101200-
NORTH


CITY           SKY/WX    TMP DP  RH WIND       PRES   REMARKS
WATERTOWN      LGT SNOW  26  23  88 E3        29.48S FOG
FORT DRUM      NOT AVBL
MASSENA        CLOUDY    20  16  84 NE5       29.54S WCI  13
SARANAC LAKE   CLOUDY    25  23  92 CALM      29.41S
PLATTSBURGH    CLOUDY    22  19  89 N5        29.52R WCI  16
$$

NYZ001>004-010>016-019>021-101200-
WEST


CITY           SKY/WX    TMP DP  RH WIND       PRES   REMARKS
NIAGARA FALLS  LGT SNOW  29  23  78 W18       29.56R WCI  16
BUFFALO        LGT SNOW  27  23  85 W14G25    29.56R BLWGSNOWWCI  16
DUNKIRK        LGT SNOW  26  23  88 W17G28    29.62R VSB 3/4 WCI  13
JAMESTOWN      CLOUDY    21  16  79 W15G21    29.56R WCI   8
WELLSVILLE     LGT SNOW  24  19  81 W13G25    29.51R WCI  12
ROCHESTER      LGT SNOW  30  25  81 W23G29    29.51R FOG     WCI  17
PENN YAN       CLOUDY    31  21  66 SW17G23   29.51R WCI  19
$$

             KEY
       WCI = WIND CHILL INDEX
       VSB = VISIBILITY
       HX  = HEAT INDEX
$$



USA.gov is the U.S. government's official web portal to all federal, state and local government web resources and services.